| time (UTC) | temp F | wind direction | speed MPH | gust MPH | rain 1hr in | rain 24hr in | rain mn in | humidity % | barometer mb |
| 20260906061304 | 77 | 27 | 4.0 | 7.0 | 0.00 | 0.00 | 0.00 | 63 | 1015.3 |
| 20260906061046 | 77 | 333 | 4.0 | 8.0 | 0.00 | 0.00 | 0.00 | 64 | 1015.3 |
| 20260906060431 | 77 | 357 | 4.0 | 10.0 | 0.00 | 0.00 | 0.00 | 65 | 1015.3 |
| 20260906060312 | 76 | 28 | 5.0 | 10.0 | 0.00 | 0.00 | 0.00 | 65 | 1015.3 |
| 20260906060154 | 76 | 296 | 5.0 | 10.0 | 0.00 | 0.00 | 0.00 | 65 | 1015.3 |
| 20260906055025 | 76 | 0 | 3.0 | 11.0 | 0.00 | 0.00 | 0.00 | 68 | 1015.2 |
| 20260906054831 | 75 | 333 | 2.0 | 11.0 | 0.00 | 0.00 | 0.00 | 69 | 1015.2 |
| 20260906054723 | 75 | 357 | 1.0 | 6.0 | 0.00 | 0.00 | 0.00 | 69 | 1015.2 |
| 20260906054544 | 75 | 1 | 2.0 | 6.0 | 0.00 | 0.00 | 0.00 | 69 | 1015.2 |
| 20260906054328 | 75 | 302 | 2.0 | 6.0 | 0.00 | 0.00 | 0.00 | 70 | 1015.0 |
| 20260906053615 | 74 | 337 | 2.0 | 6.0 | 0.00 | 0.00 | 0.00 | 70 | 1015.0 |
| 20260906053435 | 74 | 322 | 1.0 | 6.0 | 0.00 | 0.00 | 0.00 | 71 | 1015.0 |
| 20260906053303 | 74 | 356 | 1.0 | 6.0 | 0.00 | 0.00 | 0.00 | 71 | 1015.0 |
| 20260906052154 | 73 | 329 | 0.0 | 4.0 | 0.00 | 0.00 | 0.00 | 72 | 1014.8 |
| 20260906052027 | 73 | 330 | 0.0 | 2.0 | 0.00 | 0.00 | 0.00 | 72 | 1014.8 |
| 20260906051912 | 73 | 309 | 0.0 | 2.0 | 0.00 | 0.00 | 0.00 | 72 | 1014.8 |
| 20260906050634 | 72 | 299 | 0.0 | 0.0 | 0.00 | 0.00 | 0.00 | 71 | 1014.6 |
| 20260906050528 | 72 | 299 | 0.0 | 0.0 | 0.00 | 0.00 | 0.00 | 71 | 1014.6 |
| 20260906045941 | 72 | 294 | 0.0 | 3.0 | 0.00 | 0.00 | 0.00 | 71 | 1014.5 |
| 20260906045415 | 73 | 302 | 2.0 | 6.0 | 0.00 | 0.00 | 0.00 | 71 | 1014.5 |
| 20260906045319 | 73 | 305 | 2.0 | 6.0 | 0.00 | 0.00 | 0.00 | 71 | 1014.5 |
| 20260906045216 | 73 | 301 | 2.0 | 7.0 | 0.00 | 0.00 | 0.00 | 70 | 1014.5 |
| 20260906045044 | 73 | 319 | 3.0 | 7.0 | 0.00 | 0.00 | 0.00 | 70 | 1014.3 |
| 20260906044619 | 73 | 301 | 3.0 | 7.0 | 0.00 | 0.00 | 0.00 | 70 | 1014.3 |
| 20260906044129 | 73 | 309 | 4.0 | 7.0 | 0.00 | 0.00 | 0.00 | 70 | 1014.3 |
| 20260906043859 | 73 | 328 | 5.0 | 10.0 | 0.00 | 0.00 | 0.00 | 70 | 1014.3 |
| 20260906043725 | 73 | 339 | 5.0 | 10.0 | 0.00 | 0.00 | 0.00 | 70 | 1014.3 |
| 20260906042533 | 73 | 337 | 5.0 | 9.0 | 0.00 | 0.00 | 0.00 | 71 | 1014.3 |
| 20260906042403 | 73 | 326 | 4.0 | 9.0 | 0.00 | 0.00 | 0.00 | 71 | 1014.3 |
| 20260906042013 | 73 | 315 | 4.0 | 9.0 | 0.00 | 0.00 | 0.00 | 71 | 1014.3 |
| 20260906041555 | 73 | 337 | 3.0 | 9.0 | 0.00 | 0.00 | 0.00 | 71 | 1014.3 |
| 20260906041149 | 73 | 323 | 3.0 | 8.0 | 0.00 | 0.00 | 0.00 | 71 | 1014.3 |
| 20260906041028 | 73 | 336 | 2.0 | 8.0 | 0.00 | 0.00 | 0.00 | 71 | 1014.3 |
| 20260906040859 | 73 | 328 | 2.0 | 6.0 | 0.00 | 0.00 | 0.00 | 70 | 1014.3 |
| 20260906035753 | 72 | 304 | 2.0 | 5.0 | 0.00 | 0.00 | 0.00 | 68 | 1014.3 |
| 20260906035622 | 72 | 294 | 2.0 | 6.0 | 0.00 | 0.00 | 0.00 | 68 | 1014.2 |
| 20260906035502 | 72 | 322 | 2.0 | 6.0 | 0.00 | 0.00 | 0.00 | 68 | 1014.2 |
| 20260906035327 | 72 | 302 | 2.0 | 6.0 | 0.00 | 0.00 | 0.00 | 68 | 1014.2 |
| 20260906034741 | 72 | 326 | 2.0 | 6.0 | 0.00 | 0.00 | 0.00 | 66 | 1014.2 |
| 20260906034419 | 72 | 308 | 1.0 | 6.0 | 0.00 | 0.00 | 0.00 | 66 | 1014.2 |
| 20260906034129 | 71 | 299 | 2.0 | 6.0 | 0.00 | 0.00 | 0.00 | 66 | 1014.1 |
| 20260906033955 | 71 | 305 | 2.0 | 6.0 | 0.00 | 0.00 | 0.00 | 66 | 1014.1 |
| 20260906033602 | 71 | 301 | 2.0 | 6.0 | 0.00 | 0.00 | 0.00 | 67 | 1014.1 |
| 20260906033041 | 70 | 308 | 3.0 | 8.0 | 0.00 | 0.00 | 0.00 | 68 | 1014.1 |
| 20260906032907 | 70 | 308 | 3.0 | 8.0 | 0.00 | 0.00 | 0.00 | 69 | 1014.1 |
| 20260906032723 | 69 | 302 | 3.0 | 8.0 | 0.00 | 0.00 | 0.00 | 69 | 1014.0 |
| 20260906032529 | 69 | 320 | 3.0 | 8.0 | 0.00 | 0.00 | 0.00 | 70 | 1014.0 |
| 20260906031554 | 68 | 323 | 2.0 | 6.0 | 0.00 | 0.00 | 0.00 | 73 | 1014.0 |
| 20260906031433 | 68 | 346 | 1.0 | 6.0 | 0.00 | 0.00 | 0.00 | 74 | 1014.0 |
| 20260906031252 | 68 | 342 | 1.0 | 5.0 | 0.00 | 0.00 | 0.00 | 75 | 1013.8 |
| 20260906030558 | 68 | 323 | 0.0 | 0.0 | 0.00 | 0.00 | 0.00 | 75 | 1013.8 |
| 20260906025951 | 68 | 323 | 0.0 | 2.0 | 0.00 | 0.00 | 0.00 | 77 | 1013.8 |
| 20260906025833 | 68 | 323 | 0.0 | 2.0 | 0.00 | 0.00 | 0.00 | 77 | 1013.8 |
| 20260906025009 | 68 | 326 | 0.0 | 2.0 | 0.00 | 0.00 | 0.00 | 81 | 1013.8 |
| 20260906024751 | 68 | 318 | 0.0 | 2.0 | 0.00 | 0.00 | 0.00 | 81 | 1013.8 |
| 20260906024629 | 68 | 316 | 0.0 | 2.0 | 0.00 | 0.00 | 0.00 | 81 | 1013.8 |
| 20260906024450 | 69 | 329 | 0.0 | 2.0 | 0.00 | 0.00 | 0.00 | 82 | 1013.8 |
| 20260906023426 | 69 | 354 | 1.0 | 5.0 | 0.00 | 0.00 | 0.00 | 85 | 1013.8 |
| 20260906023240 | 69 | 343 | 1.0 | 5.0 | 0.00 | 0.00 | 0.00 | 85 | 1013.8 |
| 20260906023112 | 69 | 13 | 1.0 | 5.0 | 0.00 | 0.00 | 0.00 | 86 | 1013.8 |
| 20260906022359 | 69 | 0 | 2.0 | 6.0 | 0.00 | 0.00 | 0.00 | 86 | 1013.8 |
| 20260906021922 | 69 | 8 | 2.0 | 6.0 | 0.00 | 0.00 | 0.00 | 87 | 1013.8 |
| 20260906021734 | 69 | 7 | 2.0 | 6.0 | 0.00 | 0.00 | 0.00 | 88 | 1013.8 |
| 20260906021111 | 69 | 6 | 2.0 | 6.0 | 0.00 | 0.00 | 0.00 | 88 | 1013.8 |
| 20260906020557 | 69 | 14 | 2.0 | 5.0 | 0.00 | 0.00 | 0.00 | 89 | 1013.8 |
| 20260906020421 | 69 | 7 | 1.0 | 6.0 | 0.00 | 0.00 | 0.00 | 90 | 1013.8 |
| 20260906020258 | 70 | 3 | 1.0 | 6.0 | 0.00 | 0.00 | 0.00 | 91 | 1013.8 |
| 20260906015337 | 70 | 14 | 1.0 | 6.0 | 0.00 | 0.00 | 0.00 | 91 | 1013.6 |
| 20260906015123 | 70 | 17 | 1.0 | 6.0 | 0.00 | 0.00 | 0.00 | 93 | 1013.6 |
| 20260906015005 | 71 | 0 | 0.0 | 6.0 | 0.00 | 0.00 | 0.00 | 93 | 1013.6 |
| 20260906014641 | 71 | 337 | 0.0 | 1.0 | 0.00 | 0.00 | 0.00 | 93 | 1013.6 |
| 20260906013825 | 71 | 336 | 0.0 | 1.0 | 0.00 | 0.00 | 0.00 | 93 | 1013.6 |
| 20260906013554 | 71 | 333 | 0.0 | 0.0 | 0.00 | 0.00 | 0.00 | 93 | 1013.6 |
| 20260906013248 | 71 | 333 | 0.0 | 0.0 | 0.00 | 0.00 | 0.00 | 93 | 1013.6 |
| 20260906012411 | 71 | 333 | 0.0 | 0.0 | 0.00 | 0.00 | 0.00 | 93 | 1013.6 |
| 20260906012305 | 71 | 333 | 0.0 | 0.0 | 0.00 | 0.00 | 0.00 | 93 | 1013.6 |
| 20260906012047 | 71 | 333 | 0.0 | 0.0 | 0.00 | 0.00 | 0.00 | 93 | 1013.6 |
| 20260906011037 | 72 | 333 | 0.0 | 0.0 | 0.00 | 0.00 | 0.00 | 93 | 1013.6 |
| 20260906010818 | 72 | 333 | 0.0 | 0.0 | 0.00 | 0.00 | 0.00 | 93 | 1013.6 |
| 20260906010702 | 72 | 333 | 0.0 | 0.0 | 0.00 | 0.00 | 0.00 | 93 | 1013.6 |
| 20260906005339 | 75 | 320 | 0.0 | 0.0 | 0.00 | 0.00 | 0.00 | 93 | 1013.7 |
| 20260906005206 | 75 | 320 | 0.0 | 0.0 | 0.00 | 0.00 | 0.00 | 93 | 1013.7 |
| 20260906004740 | 76 | 320 | 0.0 | 0.0 | 0.00 | 0.00 | 0.00 | 92 | 1013.7 |
| 20260906004206 | 76 | 320 | 0.0 | 2.0 | 0.00 | 0.00 | 0.00 | 92 | 1013.7 |
| 20260906004100 | 76 | 320 | 0.0 | 2.0 | 0.00 | 0.00 | 0.00 | 92 | 1013.7 |
| 20260906003952 | 76 | 320 | 0.0 | 2.0 | 0.00 | 0.00 | 0.00 | 92 | 1013.7 |
| 20260906003140 | 76 | 304 | 0.0 | 2.0 | 0.00 | 0.00 | 0.00 | 91 | 1013.7 |
| 20260906002759 | 76 | 299 | 0.0 | 2.0 | 0.00 | 0.00 | 0.00 | 91 | 1013.7 |
| 20260906002644 | 76 | 299 | 0.0 | 2.0 | 0.00 | 0.00 | 0.00 | 91 | 1013.7 |
| 20260906002529 | 76 | 285 | 0.0 | 0.0 | 0.00 | 0.00 | 0.00 | 91 | 1013.7 |
| 20260906001439 | 76 | 285 | 0.0 | 0.0 | 0.00 | 0.00 | 0.00 | 90 | 1013.8 |
| 20260906001334 | 76 | 285 | 0.0 | 0.0 | 0.00 | 0.00 | 0.00 | 90 | 1013.8 |
| 20260906001213 | 76 | 285 | 0.0 | 0.0 | 0.00 | 0.00 | 0.00 | 90 | 1013.8 |
| 20260905235920 | 76 | 284 | 0.0 | 0.0 | 0.00 | 0.00 | 0.00 | 88 | 1013.8 |
| 20260905234445 | 76 | 285 | 0.0 | 2.0 | 0.00 | 0.00 | 0.00 | 86 | 1013.9 |
| 20260905234332 | 76 | 285 | 0.0 | 2.0 | 0.00 | 0.00 | 0.00 | 86 | 1013.9 |
| 20260905233244 | 76 | 281 | 0.0 | 0.0 | 0.00 | 0.00 | 0.00 | 84 | 1013.9 |
| 20260905233007 | 76 | 285 | 0.0 | 0.0 | 0.00 | 0.00 | 0.00 | 83 | 1013.9 |
| 20260905231731 | 76 | 285 | 0.0 | 0.0 | 0.00 | 0.00 | 0.00 | 81 | 1013.7 |
| 20260905231623 | 77 | 285 | 0.0 | 0.0 | 0.00 | 0.00 | 0.00 | 81 | 1013.7 |
| 20260905231501 | 77 | 285 | 0.0 | 0.0 | 0.00 | 0.00 | 0.00 | 80 | 1013.7 |
| 20260905230751 | 77 | 285 | 0.0 | 0.0 | 0.00 | 0.00 | 0.00 | 79 | 1013.8 |
| 20260905230241 | 77 | 285 | 0.0 | 0.0 | 0.00 | 0.00 | 0.00 | 78 | 1013.8 |
| 20260905230124 | 77 | 285 | 0.0 | 0.0 | 0.00 | 0.00 | 0.00 | 78 | 1013.8 |
| 20260905225008 | 77 | 285 | 0.0 | 0.0 | 0.00 | 0.00 | 0.00 | 75 | 1013.9 |
| 20260905224729 | 77 | 270 | 0.0 | 0.0 | 0.00 | 0.00 | 0.00 | 74 | 1013.9 |
| 20260905224141 | 77 | 241 | 0.0 | 0.0 | 0.00 | 0.00 | 0.00 | 73 | 1013.9 |
| 20260905223555 | 77 | 241 | 0.0 | 0.0 | 0.00 | 0.00 | 0.00 | 72 | 1013.9 |
| 20260905223445 | 77 | 241 | 0.0 | 0.0 | 0.00 | 0.00 | 0.00 | 71 | 1013.9 |
| 20260905223328 | 77 | 241 | 0.0 | 0.0 | 0.00 | 0.00 | 0.00 | 71 | 1013.9 |
| 20260905222232 | 77 | 241 | 0.0 | 0.0 | 0.00 | 0.00 | 0.00 | 69 | 1014.0 |
| 20260905222127 | 77 | 241 | 0.0 | 0.0 | 0.00 | 0.00 | 0.00 | 69 | 1014.0 |
| 20260905222014 | 77 | 241 | 0.0 | 0.0 | 0.00 | 0.00 | 0.00 | 68 | 1014.0 |
| 20260905221229 | 77 | 237 | 0.0 | 0.0 | 0.00 | 0.00 | 0.00 | 67 | 1014.0 |
| 20260905220838 | 77 | 237 | 0.0 | 0.0 | 0.00 | 0.00 | 0.00 | 66 | 1014.0 |
| 20260905220606 | 77 | 237 | 0.0 | 0.0 | 0.00 | 0.00 | 0.00 | 66 | 1014.0 |
| 20260905220448 | 77 | 237 | 0.0 | 0.0 | 0.00 | 0.00 | 0.00 | 65 | 1014.0 |
| 20260905215818 | 77 | 237 | 0.0 | 0.0 | 0.00 | 0.00 | 0.00 | 64 | 1014.0 |
| 20260905215405 | 77 | 237 | 0.0 | 0.0 | 0.00 | 0.00 | 0.00 | 64 | 1014.0 |
| 20260905215137 | 77 | 237 | 0.0 | 0.0 | 0.00 | 0.00 | 0.00 | 63 | 1014.0 |
| 20260905214039 | 78 | 237 | 0.0 | 0.0 | 0.00 | 0.00 | 0.00 | 63 | 1014.0 |
| 20260905213930 | 78 | 237 | 0.0 | 0.0 | 0.00 | 0.00 | 0.00 | 63 | 1014.0 |
| 20260905213756 | 78 | 237 | 0.0 | 0.0 | 0.00 | 0.00 | 0.00 | 62 | 1013.8 |
| 20260905213648 | 78 | 237 | 0.0 | 0.0 | 0.00 | 0.00 | 0.00 | 61 | 1013.8 |
| 20260905212558 | 77 | 237 | 0.0 | 0.0 | 0.00 | 0.00 | 0.00 | 58 | 1013.8 |
| 20260905212445 | 77 | 237 | 0.0 | 0.0 | 0.00 | 0.00 | 0.00 | 57 | 1013.8 |
| 20260905211918 | 77 | 237 | 0.0 | 0.0 | 0.00 | 0.00 | 0.00 | 54 | 1013.8 |
| 20260905211241 | 77 | 237 | 0.0 | 0.0 | 0.00 | 0.00 | 0.00 | 52 | 1013.8 |
| 20260905211003 | 77 | 237 | 0.0 | 0.0 | 0.00 | 0.00 | 0.00 | 49 | 1013.8 |
| 20260905210241 | 77 | 237 | 0.0 | 0.0 | 0.00 | 0.00 | 0.00 | 47 | 1013.9 |
| 20260905205759 | 77 | 237 | 0.0 | 0.0 | 0.00 | 0.00 | 0.00 | 47 | 1013.9 |
| 20260905205526 | 77 | 237 | 0.0 | 0.0 | 0.00 | 0.00 | 0.00 | 46 | 1013.9 |
| 20260905205402 | 77 | 237 | 0.0 | 0.0 | 0.00 | 0.00 | 0.00 | 46 | 1013.9 |
| 20260905204948 | 77 | 237 | 0.0 | 0.0 | 0.00 | 0.00 | 0.00 | 45 | 1013.9 |
| 20260905204403 | 77 | 237 | 0.0 | 0.0 | 0.00 | 0.00 | 0.00 | 46 | 1013.9 |
| 20260905204251 | 78 | 241 | 0.0 | 0.0 | 0.00 | 0.00 | 0.00 | 46 | 1013.9 |
| 20260905203804 | 78 | 241 | 0.0 | 0.0 | 0.00 | 0.00 | 0.00 | 45 | 1013.9 |
| 20260905203548 | 78 | 241 | 0.0 | 1.0 | 0.00 | 0.00 | 0.00 | 45 | 1013.9 |
| 20260905203331 | 78 | 241 | 0.0 | 1.0 | 0.00 | 0.00 | 0.00 | 44 | 1013.9 |
| 20260905202951 | 78 | 241 | 0.0 | 1.0 | 0.00 | 0.00 | 0.00 | 44 | 1013.9 |
| 20260905202841 | 78 | 241 | 0.0 | 1.0 | 0.00 | 0.00 | 0.00 | 43 | 1013.9 |
| 20260905202622 | 78 | 241 | 0.0 | 2.0 | 0.00 | 0.00 | 0.00 | 43 | 1013.9 |
| 20260905202408 | 79 | 239 | 0.0 | 2.0 | 0.00 | 0.00 | 0.00 | 43 | 1013.9 |
| 20260905201619 | 79 | 254 | 1.0 | 2.0 | 0.00 | 0.00 | 0.00 | 43 | 1013.9 |
| 20260905201506 | 79 | 254 | 1.0 | 2.0 | 0.00 | 0.00 | 0.00 | 43 | 1013.9 |
| 20260905201343 | 79 | 248 | 1.0 | 2.0 | 0.00 | 0.00 | 0.00 | 43 | 1013.9 |
| 20260905200630 | 79 | 244 | 0.0 | 2.0 | 0.00 | 0.00 | 0.00 | 43 | 1013.9 |
| 20260905200207 | 79 | 239 | 0.0 | 2.0 | 0.00 | 0.00 | 0.00 | 43 | 1013.9 |
| 20260905200045 | 79 | 237 | 0.0 | 2.0 | 0.00 | 0.00 | 0.00 | 43 | 1013.9 |
| 20260905195935 | 79 | 229 | 0.0 | 2.0 | 0.00 | 0.00 | 0.00 | 43 | 1013.9 |
| 20260905194815 | 79 | 244 | 0.0 | 3.0 | 0.00 | 0.00 | 0.00 | 44 | 1013.7 |
| 20260905194710 | 79 | 244 | 0.0 | 3.0 | 0.00 | 0.00 | 0.00 | 44 | 1013.7 |
| 20260905194545 | 79 | 234 | 0.0 | 3.0 | 0.00 | 0.00 | 0.00 | 44 | 1013.7 |
| 20260905193949 | 80 | 220 | 0.0 | 3.0 | 0.00 | 0.00 | 0.00 | 43 | 1013.7 |
| 20260905193617 | 80 | 220 | 0.0 | 3.0 | 0.00 | 0.00 | 0.00 | 43 | 1013.7 |
| 20260905193351 | 80 | 220 | 0.0 | 3.0 | 0.00 | 0.00 | 0.00 | 43 | 1013.7 |
| 20260905193243 | 80 | 220 | 0.0 | 3.0 | 0.00 | 0.00 | 0.00 | 43 | 1013.7 |
| 20260905192036 | 80 | 196 | 0.0 | 1.0 | 0.00 | 0.00 | 0.00 | 43 | 1013.4 |
| 20260905191920 | 80 | 222 | 0.0 | 2.0 | 0.00 | 0.00 | 0.00 | 43 | 1013.4 |
| 20260905191804 | 80 | 224 | 0.0 | 2.0 | 0.00 | 0.00 | 0.00 | 43 | 1013.4 |
| 20260905191022 | 80 | 169 | 0.0 | 2.0 | 0.00 | 0.00 | 0.00 | 43 | 1013.4 |
| 20260905190618 | 80 | 227 | 0.0 | 2.0 | 0.00 | 0.00 | 0.00 | 43 | 1013.4 |
| 20260905190500 | 81 | 216 | 0.0 | 2.0 | 0.00 | 0.00 | 0.00 | 43 | 1013.4 |
| 20260905190352 | 81 | 216 | 0.0 | 2.0 | 0.00 | 0.00 | 0.00 | 42 | 1013.4 |
| 20260905185225 | 81 | 227 | 0.0 | 3.0 | 0.00 | 0.00 | 0.00 | 42 | 1013.4 |
| 20260905185004 | 81 | 230 | 0.0 | 3.0 | 0.00 | 0.00 | 0.00 | 42 | 1013.3 |
| 20260905184856 | 81 | 200 | 0.0 | 3.0 | 0.00 | 0.00 | 0.00 | 42 | 1013.3 |
| 20260905184615 | 81 | 226 | 1.0 | 3.0 | 0.00 | 0.00 | 0.00 | 42 | 1013.3 |
| 20260905183808 | 81 | 232 | 0.0 | 3.0 | 0.00 | 0.00 | 0.00 | 42 | 1013.3 |
| 20260905183648 | 81 | 237 | 0.0 | 2.0 | 0.00 | 0.00 | 0.00 | 42 | 1013.3 |
| 20260905183300 | 81 | 251 | 0.0 | 2.0 | 0.00 | 0.00 | 0.00 | 42 | 1013.3 |
| 20260905182828 | 81 | 233 | 0.0 | 3.0 | 0.00 | 0.00 | 0.00 | 42 | 1013.3 |
| 20260905182406 | 81 | 220 | 0.0 | 3.0 | 0.00 | 0.00 | 0.00 | 42 | 1013.3 |
| 20260905182305 | 81 | 240 | 0.0 | 3.0 | 0.00 | 0.00 | 0.00 | 42 | 1013.3 |
| 20260905182145 | 82 | 240 | 0.0 | 3.0 | 0.00 | 0.00 | 0.00 | 42 | 1013.3 |
| 20260905180938 | 82 | 233 | 0.0 | 2.0 | 0.00 | 0.00 | 0.00 | 42 | 1013.1 |
| 20260905180831 | 82 | 251 | 0.0 | 2.0 | 0.00 | 0.00 | 0.00 | 42 | 1013.2 |
| 20260905180715 | 82 | 220 | 0.0 | 2.0 | 0.00 | 0.00 | 0.00 | 42 | 1013.2 |
| 20260905180320 | 83 | 200 | 0.0 | 2.0 | 0.00 | 0.00 | 0.00 | 42 | 1013.1 |
| 20260905180111 | 83 | 223 | 0.0 | 2.0 | 0.00 | 0.00 | 0.00 | 42 | 1013.1 |
| 20260905175644 | 83 | 230 | 0.0 | 2.0 | 0.00 | 0.00 | 0.00 | 41 | 1013.1 |
| 20260905175516 | 83 | 230 | 0.0 | 2.0 | 0.00 | 0.00 | 0.00 | 41 | 1013.1 |
| 20260905175414 | 83 | 230 | 0.0 | 2.0 | 0.00 | 0.00 | 0.00 | 41 | 1013.1 |
| 20260905174335 | 84 | 205 | 0.0 | 2.0 | 0.00 | 0.00 | 0.00 | 41 | 1013.1 |
| 20260905174140 | 84 | 193 | 0.0 | 2.0 | 0.00 | 0.00 | 0.00 | 41 | 1013.1 |
| 20260905174007 | 84 | 208 | 0.0 | 2.0 | 0.00 | 0.00 | 0.00 | 41 | 1013.1 |
| 20260905173854 | 84 | 186 | 0.0 | 2.0 | 0.00 | 0.00 | 0.00 | 40 | 1013.1 |
| 20260905173406 | 85 | 209 | 0.0 | 5.0 | 0.00 | 0.00 | 0.00 | 40 | 1013.0 |
| 20260905172758 | 85 | 202 | 0.0 | 5.0 | 0.00 | 0.00 | 0.00 | 40 | 1013.0 |
| 20260905172657 | 85 | 212 | 0.0 | 5.0 | 0.00 | 0.00 | 0.00 | 40 | 1013.0 |
| 20260905172529 | 85 | 189 | 0.0 | 1.0 | 0.00 | 0.00 | 0.00 | 40 | 1013.0 |
| 20260905171746 | 86 | 193 | 0.0 | 7.0 | 0.00 | 0.00 | 0.00 | 40 | 1013.0 |
| 20260905171426 | 86 | 193 | 0.0 | 7.0 | 0.00 | 0.00 | 0.00 | 40 | 1013.0 |
| 20260905171326 | 86 | 212 | 0.0 | 7.0 | 0.00 | 0.00 | 0.00 | 40 | 1013.0 |
| 20260905171105 | 86 | 182 | 1.0 | 7.0 | 0.00 | 0.00 | 0.00 | 40 | 1013.0 |
| 20260905165959 | 87 | 182 | 0.0 | 3.0 | 0.00 | 0.00 | 0.00 | 41 | 1013.1 |
| 20260905165839 | 87 | 154 | 0.0 | 3.0 | 0.00 | 0.00 | 0.00 | 40 | 1013.1 |
| 20260905165718 | 87 | 174 | 0.0 | 3.0 | 0.00 | 0.00 | 0.00 | 40 | 1013.1 |
| 20260905165249 | 88 | 176 | 0.0 | 3.0 | 0.00 | 0.00 | 0.00 | 40 | 1013.1 |
| 20260905164611 | 88 | 224 | 0.0 | 3.0 | 0.00 | 0.00 | 0.00 | 40 | 1013.1 |
| 20260905164459 | 88 | 233 | 0.0 | 3.0 | 0.00 | 0.00 | 0.00 | 40 | 1013.1 |
| 20260905164333 | 88 | 234 | 1.0 | 6.0 | 0.00 | 0.00 | 0.00 | 40 | 1013.1 |
| 20260905164004 | 89 | 239 | 1.0 | 6.0 | 0.00 | 0.00 | 0.00 | 39 | 1013.1 |
| 20260905163217 | 89 | 168 | 1.0 | 6.0 | 0.00 | 0.00 | 0.00 | 37 | 1013.1 |
| 20260905163054 | 89 | 223 | 0.0 | 5.0 | 0.00 | 0.00 | 0.00 | 37 | 1013.0 |
| 20260905162944 | 89 | 165 | 0.0 | 5.0 | 0.00 | 0.00 | 0.00 | 38 | 1013.0 |
| 20260905161818 | 89 | 148 | 1.0 | 6.0 | 0.00 | 0.00 | 0.00 | 35 | 1013.0 |
| 20260905161706 | 89 | 168 | 1.0 | 6.0 | 0.00 | 0.00 | 0.00 | 35 | 1013.0 |
| 20260905161317 | 89 | 188 | 1.0 | 6.0 | 0.00 | 0.00 | 0.00 | 36 | 1013.1 |
| 20260905160624 | 89 | 169 | 0.0 | 3.0 | 0.00 | 0.00 | 0.00 | 35 | 1013.1 |
| 20260905160308 | 89 | 213 | 0.0 | 3.0 | 0.00 | 0.00 | 0.00 | 36 | 1013.1 |
| 20260905160158 | 89 | 128 | 1.0 | 6.0 | 0.00 | 0.00 | 0.00 | 37 | 1013.1 |
| 20260905155737 | 89 | 164 | 1.0 | 6.0 | 0.00 | 0.00 | 0.00 | 37 | 1013.1 |
| 20260905155103 | 89 | 192 | 1.0 | 6.0 | 0.00 | 0.00 | 0.00 | 37 | 1013.1 |
| 20260905154932 | 89 | 193 | 0.0 | 6.0 | 0.00 | 0.00 | 0.00 | 38 | 1013.1 |
| 20260905154804 | 89 | 171 | 0.0 | 6.0 | 0.00 | 0.00 | 0.00 | 40 | 1013.1 |
| 20260905154627 | 89 | 181 | 0.0 | 6.0 | 0.00 | 0.00 | 0.00 | 41 | 1013.1 |
| 20260905154246 | 89 | 157 | 1.0 | 6.0 | 0.00 | 0.00 | 0.00 | 46 | 1013.1 |
| 20260905153614 | 88 | 136 | 1.0 | 6.0 | 0.00 | 0.00 | 0.00 | 39 | 1013.1 |
| 20260905153501 | 88 | 164 | 1.0 | 6.0 | 0.00 | 0.00 | 0.00 | 39 | 1013.1 |
| 20260905153328 | 88 | 144 | 1.0 | 6.0 | 0.00 | 0.00 | 0.00 | 41 | 1013.1 |
| 20260905153134 | 88 | 143 | 1.0 | 4.0 | 0.00 | 0.00 | 0.00 | 44 | 1013.1 |
| 20260905152219 | 88 | 133 | 1.0 | 8.0 | 0.00 | 0.00 | 0.00 | 47 | 1013.3 |
| 20260905151953 | 88 | 140 | 1.0 | 8.0 | 0.00 | 0.00 | 0.00 | 47 | 1013.3 |
| 20260905151405 | 87 | 161 | 1.0 | 5.0 | 0.00 | 0.00 | 0.00 | 46 | 1013.3 |
| 20260905150758 | 87 | 150 | 2.0 | 6.0 | 0.00 | 0.00 | 0.00 | 46 | 1013.5 |
| 20260905150628 | 87 | 144 | 2.0 | 6.0 | 0.00 | 0.00 | 0.00 | 46 | 1013.5 |
| 20260905150459 | 87 | 145 | 2.0 | 6.0 | 0.00 | 0.00 | 0.00 | 46 | 1013.5 |
| 20260905150301 | 87 | 131 | 2.0 | 6.0 | 0.00 | 0.00 | 0.00 | 48 | 1013.5 |
| 20260905150123 | 87 | 119 | 2.0 | 6.0 | 0.00 | 0.00 | 0.00 | 49 | 1013.5 |
| 20260905145312 | 87 | 126 | 2.0 | 6.0 | 0.00 | 0.00 | 0.00 | 50 | 1013.5 |
| 20260905145152 | 87 | 155 | 2.0 | 6.0 | 0.00 | 0.00 | 0.00 | 49 | 1013.5 |
| 20260905144125 | 87 | 134 | 3.0 | 7.0 | 0.00 | 0.00 | 0.00 | 49 | 1013.5 |
| 20260905143920 | 86 | 154 | 4.0 | 7.0 | 0.00 | 0.00 | 0.00 | 49 | 1013.7 |
| 20260905143747 | 86 | 143 | 4.0 | 7.0 | 0.00 | 0.00 | 0.00 | 51 | 1013.7 |
| 20260905143607 | 86 | 185 | 4.0 | 7.0 | 0.00 | 0.00 | 0.00 | 56 | 1013.7 |
| 20260905142624 | 85 | 128 | 4.0 | 7.0 | 0.00 | 0.00 | 0.00 | 58 | 1013.7 |
| 20260905142455 | 85 | 140 | 4.0 | 7.0 | 0.00 | 0.00 | 0.00 | 62 | 1013.8 |
| 20260905142322 | 85 | 114 | 3.0 | 6.0 | 0.00 | 0.00 | 0.00 | 62 | 1013.8 |
| 20260905142137 | 85 | 112 | 3.0 | 6.0 | 0.00 | 0.00 | 0.00 | 61 | 1013.8 |
| 20260905141540 | 86 | 130 | 2.0 | 6.0 | 0.00 | 0.00 | 0.00 | 58 | 1013.8 |
| 20260905141220 | 86 | 121 | 2.0 | 5.0 | 0.00 | 0.00 | 0.00 | 57 | 1013.8 |
| 20260905141058 | 87 | 119 | 1.0 | 5.0 | 0.00 | 0.00 | 0.00 | 55 | 1013.8 |
| 20260905140320 | 87 | 152 | 0.0 | 5.0 | 0.00 | 0.00 | 0.00 | 55 | 1014.0 |
| 20260905140142 | 87 | 133 | 0.0 | 3.0 | 0.00 | 0.00 | 0.00 | 55 | 1014.0 |
| 20260905135807 | 87 | 141 | 0.0 | 3.0 | 0.00 | 0.00 | 0.00 | 55 | 1014.0 |
| 20260905135640 | 87 | 154 | 0.0 | 3.0 | 0.00 | 0.00 | 0.00 | 54 | 1014.0 |
| 20260905135510 | 87 | 168 | 1.0 | 3.0 | 0.00 | 0.00 | 0.00 | 54 | 1014.2 |
| 20260905134416 | 87 | 161 | 2.0 | 5.0 | 0.00 | 0.00 | 0.00 | 53 | 1014.2 |
| 20260905134242 | 87 | 123 | 2.0 | 5.0 | 0.00 | 0.00 | 0.00 | 52 | 1014.2 |
| 20260905134114 | 87 | 123 | 1.0 | 5.0 | 0.00 | 0.00 | 0.00 | 53 | 1014.2 |
| 20260905133140 | 88 | 143 | 0.0 | 3.0 | 0.00 | 0.00 | 0.00 | 52 | 1014.3 |
| 20260905132848 | 88 | 131 | 0.0 | 3.0 | 0.00 | 0.00 | 0.00 | 51 | 1014.3 |
| 20260905132724 | 88 | 136 | 0.0 | 2.0 | 0.00 | 0.00 | 0.00 | 51 | 1014.3 |
| 20260905132338 | 88 | 189 | 0.0 | 3.0 | 0.00 | 0.00 | 0.00 | 53 | 1014.4 |
| 20260905132203 | 88 | 157 | 0.0 | 3.0 | 0.00 | 0.00 | 0.00 | 52 | 1014.4 |
| 20260905131623 | 87 | 174 | 0.0 | 3.0 | 0.00 | 0.00 | 0.00 | 54 | 1014.4 |
| 20260905131503 | 87 | 138 | 0.0 | 3.0 | 0.00 | 0.00 | 0.00 | 55 | 1014.4 |
| 20260905131326 | 87 | 157 | 1.0 | 4.0 | 0.00 | 0.00 | 0.00 | 55 | 1014.4 |
| 20260905131203 | 86 | 161 | 1.0 | 4.0 | 0.00 | 0.00 | 0.00 | 56 | 1014.7 |
| 20260905130814 | 86 | 140 | 2.0 | 5.0 | 0.00 | 0.00 | 0.00 | 55 | 1014.7 |
| 20260905130629 | 86 | 127 | 1.0 | 5.0 | 0.00 | 0.00 | 0.00 | 54 | 1014.7 |
| 20260905130242 | 86 | 120 | 1.0 | 5.0 | 0.00 | 0.00 | 0.00 | 52 | 1014.7 |
| 20260905130117 | 85 | 151 | 2.0 | 5.0 | 0.00 | 0.00 | 0.00 | 52 | 1014.7 |
| 20260905125944 | 85 | 145 | 2.0 | 5.0 | 0.00 | 0.00 | 0.00 | 54 | 1014.7 |
| 20260905125003 | 85 | 131 | 2.0 | 6.0 | 0.00 | 0.00 | 0.00 | 58 | 1014.9 |
| 20260905124717 | 85 | 130 | 2.0 | 6.0 | 0.00 | 0.00 | 0.00 | 56 | 1014.9 |
| 20260905124553 | 86 | 128 | 2.0 | 5.0 | 0.00 | 0.00 | 0.00 | 56 | 1014.9 |
| 20260905124352 | 86 | 154 | 2.0 | 4.0 | 0.00 | 0.00 | 0.00 | 55 | 1014.9 |
| 20260905123404 | 86 | 138 | 2.0 | 5.0 | 0.00 | 0.00 | 0.00 | 55 | 1015.0 |
| 20260905123228 | 86 | 140 | 1.0 | 5.0 | 0.00 | 0.00 | 0.00 | 54 | 1015.0 |
| 20260905123104 | 86 | 133 | 1.0 | 5.0 | 0.00 | 0.00 | 0.00 | 54 | 1015.0 |
| 20260905121938 | 86 | 154 | 1.0 | 3.0 | 0.00 | 0.00 | 0.00 | 58 | 1015.1 |
| 20260905121808 | 85 | 65 | 1.0 | 5.0 | 0.00 | 0.00 | 0.00 | 58 | 1015.1 |
| 20260905121235 | 84 | 93 | 2.0 | 5.0 | 0.00 | 0.00 | 0.00 | 59 | 1015.1 |
| 20260905120536 | 84 | 107 | 2.0 | 6.0 | 0.00 | 0.00 | 0.00 | 58 | 1015.2 |
| 20260905120056 | 85 | 123 | 2.0 | 7.0 | 0.00 | 0.00 | 0.00 | 56 | 1015.2 |
| 20260905115841 | 85 | 97 | 2.0 | 7.0 | 0.00 | 0.00 | 0.00 | 58 | 1015.2 |
| 20260905115146 | 85 | 104 | 2.0 | 5.0 | 0.00 | 0.00 | 0.00 | 57 | 1015.3 |
| 20260905115030 | 85 | 116 | 2.0 | 5.0 | 0.00 | 0.00 | 0.00 | 58 | 1015.3 |
| 20260905114855 | 85 | 86 | 2.0 | 5.0 | 0.00 | 0.00 | 0.00 | 58 | 1015.3 |
| 20260905113737 | 85 | 123 | 0.0 | 3.0 | 0.00 | 0.00 | 0.00 | 59 | 1015.4 |
| 20260905113613 | 85 | 131 | 1.0 | 3.0 | 0.00 | 0.00 | 0.00 | 60 | 1015.4 |
| 20260905113449 | 85 | 131 | 1.0 | 3.0 | 0.00 | 0.00 | 0.00 | 61 | 1015.4 |
| 20260905113310 | 84 | 110 | 1.0 | 3.0 | 0.00 | 0.00 | 0.00 | 62 | 1015.4 |
| 20260905112707 | 85 | 113 | 1.0 | 3.0 | 0.00 | 0.00 | 0.00 | 61 | 1015.5 |
| 20260905112403 | 85 | 103 | 1.0 | 3.0 | 0.00 | 0.00 | 0.00 | 61 | 1015.5 |
| 20260905112231 | 85 | 137 | 1.0 | 3.0 | 0.00 | 0.00 | 0.00 | 61 | 1015.5 |
| 20260905112104 | 85 | 102 | 1.0 | 3.0 | 0.00 | 0.00 | 0.00 | 61 | 1015.5 |
| 20260905111852 | 85 | 88 | 1.0 | 3.0 | 0.00 | 0.00 | 0.00 | 61 | 1015.5 |
| 20260905111006 | 84 | 126 | 0.0 | 2.0 | 0.00 | 0.00 | 0.00 | 60 | 1015.7 |
| 20260905110834 | 84 | 119 | 0.0 | 5.0 | 0.00 | 0.00 | 0.00 | 59 | 1015.7 |
| 20260905110722 | 85 | 123 | 1.0 | 5.0 | 0.00 | 0.00 | 0.00 | 59 | 1015.7 |
| 20260905110549 | 85 | 119 | 1.0 | 5.0 | 0.00 | 0.00 | 0.00 | 59 | 1015.7 |
| 20260905105942 | 85 | 88 | 0.0 | 3.0 | 0.00 | 0.00 | 0.00 | 60 | 1015.7 |
| 20260905105511 | 85 | 83 | 0.0 | 3.0 | 0.00 | 0.00 | 0.00 | 60 | 1015.9 |
| 20260905105356 | 85 | 93 | 0.0 | 3.0 | 0.00 | 0.00 | 0.00 | 59 | 1015.9 |
| 20260905105239 | 85 | 89 | 1.0 | 3.0 | 0.00 | 0.00 | 0.00 | 60 | 1015.9 |
| 20260905105017 | 85 | 80 | 0.0 | 3.0 | 0.00 | 0.00 | 0.00 | 59 | 1015.9 |
| 20260905104801 | 85 | 99 | 0.0 | 3.0 | 0.00 | 0.00 | 0.00 | 59 | 1015.9 |
| 20260905104224 | 85 | 34 | 0.0 | 2.0 | 0.00 | 0.00 | 0.00 | 61 | 1016.1 |
| 20260905104107 | 85 | 120 | 0.0 | 1.0 | 0.00 | 0.00 | 0.00 | 61 | 1016.1 |
| 20260905103948 | 85 | 72 | 0.0 | 3.0 | 0.00 | 0.00 | 0.00 | 61 | 1016.1 |
| 20260905103452 | 84 | 109 | 0.0 | 3.0 | 0.00 | 0.00 | 0.00 | 60 | 1016.1 |
| 20260905102827 | 84 | 79 | 0.0 | 1.0 | 0.00 | 0.00 | 0.00 | 59 | 1016.1 |
| 20260905102714 | 85 | 79 | 0.0 | 1.0 | 0.00 | 0.00 | 0.00 | 58 | 1016.1 |
| 20260905102605 | 85 | 42 | 0.0 | 1.0 | 0.00 | 0.00 | 0.00 | 59 | 1016.1 |
| 20260905102452 | 84 | 78 | 0.0 | 2.0 | 0.00 | 0.00 | 0.00 | 59 | 1016.1 |
| 20260905102024 | 84 | 83 | 0.0 | 2.0 | 0.00 | 0.00 | 0.00 | 58 | 1016.1 |
| 20260905101812 | 84 | 100 | 0.0 | 3.0 | 0.00 | 0.00 | 0.00 | 59 | 1016.1 |
| 20260905101428 | 83 | 99 | 1.0 | 3.0 | 0.00 | 0.00 | 0.00 | 59 | 1016.3 |
| 20260905101315 | 83 | 100 | 1.0 | 5.0 | 0.00 | 0.00 | 0.00 | 60 | 1016.3 |
| 20260905101201 | 83 | 107 | 1.0 | 5.0 | 0.00 | 0.00 | 0.00 | 59 | 1016.2 |
| 20260905101047 | 83 | 92 | 2.0 | 5.0 | 0.00 | 0.00 | 0.00 | 60 | 1016.2 |
| 20260905100618 | 83 | 85 | 2.0 | 5.0 | 0.00 | 0.00 | 0.00 | 59 | 1016.2 |
| 20260905100355 | 83 | 82 | 2.0 | 5.0 | 0.00 | 0.00 | 0.00 | 60 | 1016.2 |
| 20260905100009 | 83 | 90 | 2.0 | 5.0 | 0.00 | 0.00 | 0.00 | 59 | 1016.4 |
| 20260905095848 | 83 | 35 | 2.0 | 5.0 | 0.00 | 0.00 | 0.00 | 60 | 1016.4 |
| 20260905095725 | 83 | 80 | 1.0 | 5.0 | 0.00 | 0.00 | 0.00 | 59 | 1016.4 |
| 20260905095559 | 83 | 92 | 1.0 | 3.0 | 0.00 | 0.00 | 0.00 | 60 | 1016.4 |
| 20260905094827 | 83 | 85 | 1.0 | 5.0 | 0.00 | 0.00 | 0.00 | 59 | 1016.4 |
| 20260905094421 | 83 | 35 | 1.0 | 5.0 | 0.00 | 0.00 | 0.00 | 58 | 1016.4 |
| 20260905094259 | 83 | 21 | 1.0 | 5.0 | 0.00 | 0.00 | 0.00 | 59 | 1016.4 |
| 20260905093128 | 82 | 35 | 2.0 | 6.0 | 0.00 | 0.00 | 0.00 | 59 | 1016.4 |
| 20260905093003 | 82 | 25 | 2.0 | 6.0 | 0.00 | 0.00 | 0.00 | 58 | 1016.4 |
| 20260905091834 | 82 | 34 | 1.0 | 6.0 | 0.00 | 0.00 | 0.00 | 56 | 1016.5 |
| 20260905091643 | 83 | 64 | 1.0 | 6.0 | 0.00 | 0.00 | 0.00 | 56 | 1016.5 |
| 20260905091521 | 83 | 51 | 1.0 | 6.0 | 0.00 | 0.00 | 0.00 | 56 | 1016.5 |
| 20260905091339 | 83 | 56 | 2.0 | 6.0 | 0.00 | 0.00 | 0.00 | 56 | 1016.4 |
| 20260905090523 | 82 | 359 | 3.0 | 8.0 | 0.00 | 0.00 | 0.00 | 55 | 1016.4 |
| 20260905090234 | 82 | 0 | 3.0 | 8.0 | 0.00 | 0.00 | 0.00 | 55 | 1016.4 |
| 20260905090109 | 82 | 48 | 4.0 | 7.0 | 0.00 | 0.00 | 0.00 | 55 | 1016.4 |
| 20260905085859 | 82 | 31 | 4.0 | 8.0 | 0.00 | 0.00 | 0.00 | 56 | 1016.4 |
| 20260905085128 | 82 | 359 | 3.0 | 8.0 | 0.00 | 0.00 | 0.00 | 54 | 1016.4 |
| 20260905084925 | 82 | 4 | 3.0 | 8.0 | 0.00 | 0.00 | 0.00 | 52 | 1016.4 |
| 20260905084800 | 81 | 342 | 3.0 | 8.0 | 0.00 | 0.00 | 0.00 | 52 | 1016.4 |
| 20260905084428 | 81 | 357 | 4.0 | 8.0 | 0.00 | 0.00 | 0.00 | 54 | 1016.4 |
| 20260905084209 | 81 | 0 | 5.0 | 8.0 | 0.00 | 0.00 | 0.00 | 53 | 1016.4 |
| 20260905083820 | 81 | 1 | 5.0 | 8.0 | 0.00 | 0.00 | 0.00 | 53 | 1016.4 |
| 20260905083525 | 81 | 13 | 5.0 | 8.0 | 0.00 | 0.00 | 0.00 | 54 | 1016.4 |
| 20260905083358 | 80 | 0 | 5.0 | 8.0 | 0.00 | 0.00 | 0.00 | 54 | 1016.4 |
| 20260905083152 | 80 | 23 | 5.0 | 8.0 | 0.00 | 0.00 | 0.00 | 53 | 1016.4 |
| 20260905082720 | 80 | 4 | 5.0 | 8.0 | 0.00 | 0.00 | 0.00 | 54 | 1016.4 |
| 20260905082456 | 82 | 0 | 3.0 | 8.0 | 0.00 | 0.00 | 0.00 | 56 | 1016.4 |
| 20260905082238 | 80 | 23 | 5.0 | 8.0 | 0.00 | 0.00 | 0.00 | 54 | 1016.4 |
| 20260905082041 | 80 | 23 | 5.0 | 8.0 | 0.00 | 0.00 | 0.00 | 52 | 1016.4 |
| 20260905081901 | 80 | 352 | 5.0 | 8.0 | 0.00 | 0.00 | 0.00 | 52 | 1016.4 |
| 20260905080756 | 80 | 11 | 4.0 | 8.0 | 0.00 | 0.00 | 0.00 | 54 | 1016.4 |
| 20260905080634 | 80 | 359 | 4.0 | 8.0 | 0.00 | 0.00 | 0.00 | 53 | 1016.4 |
| 20260905075650 | 79 | 359 | 5.0 | 9.0 | 0.00 | 0.00 | 0.00 | 56 | 1016.4 |
| 20260905075356 | 79 | 14 | 6.0 | 9.0 | 0.00 | 0.00 | 0.00 | 56 | 1016.3 |
| 20260905075225 | 79 | 11 | 6.0 | 11.0 | 0.00 | 0.00 | 0.00 | 56 | 1016.3 |
| 20260905074846 | 79 | 18 | 6.0 | 11.0 | 0.00 | 0.00 | 0.00 | 56 | 1016.3 |
| 20260905074024 | 79 | 8 | 5.0 | 9.0 | 0.00 | 0.00 | 0.00 | 56 | 1016.4 |
| 20260905073821 | 79 | 35 | 5.0 | 10.0 | 0.00 | 0.00 | 0.00 | 56 | 1016.4 |
| 20260905073641 | 79 | 18 | 4.0 | 10.0 | 0.00 | 0.00 | 0.00 | 56 | 1016.4 |
| 20260905072538 | 79 | 357 | 4.0 | 9.0 | 0.00 | 0.00 | 0.00 | 55 | 1016.4 |
| 20260905072407 | 79 | 0 | 4.0 | 9.0 | 0.00 | 0.00 | 0.00 | 54 | 1016.4 |
| 20260905071641 | 80 | 3 | 4.0 | 8.0 | 0.00 | 0.00 | 0.00 | 54 | 1016.4 |
| 20260905071148 | 80 | 0 | 4.0 | 8.0 | 0.00 | 0.00 | 0.00 | 53 | 1016.4 |
| 20260905071013 | 79 | 6 | 4.0 | 8.0 | 0.00 | 0.00 | 0.00 | 53 | 1016.4 |
| 20260905065816 | 79 | 18 | 4.0 | 8.0 | 0.00 | 0.00 | 0.00 | 51 | 1016.4 |
| 20260905065024 | 79 | 30 | 3.0 | 7.0 | 0.00 | 0.00 | 0.00 | 51 | 1016.4 |
| 20260905064839 | 79 | 11 | 3.0 | 7.0 | 0.00 | 0.00 | 0.00 | 52 | 1016.4 |
| 20260905064404 | 79 | 21 | 3.0 | 7.0 | 0.00 | 0.00 | 0.00 | 51 | 1016.4 |
| 20260905064228 | 79 | 0 | 3.0 | 8.0 | 0.00 | 0.00 | 0.00 | 51 | 1016.4 |
| 20260905063235 | 79 | 24 | 2.0 | 5.0 | 0.00 | 0.00 | 0.00 | 49 | 1016.4 |
| 20260905062941 | 79 | 31 | 1.0 | 5.0 | 0.00 | 0.00 | 0.00 | 49 | 1016.4 |
| 20260905062804 | 78 | 23 | 1.0 | 5.0 | 0.00 | 0.00 | 0.00 | 48 | 1016.4 |
| 20260905062437 | 78 | 18 | 1.0 | 5.0 | 0.00 | 0.00 | 0.00 | 50 | 1016.4 |
| 20260905062258 | 78 | 30 | 0.0 | 4.0 | 0.00 | 0.00 | 0.00 | 51 | 1016.4 |
| 20260905061627 | 78 | 325 | 1.0 | 7.0 | 0.00 | 0.00 | 0.00 | 53 | 1016.4 |
| 20260905061504 | 78 | 21 | 1.0 | 7.0 | 0.00 | 0.00 | 0.00 | 53 | 1016.4 |
| 20260905061352 | 78 | 21 | 2.0 | 7.0 | 0.00 | 0.00 | 0.00 | 53 | 1016.4 |